User: anonymous   Login
Location: Unspecified
(0.0000°N, 0.0000°E)
Time: 04:52:47
(UTC+00:00)
Language:

EO-1 - Orbit

View from above orbital plane
View from above orbital plane
View from above satellite
View from above satellite

Ground track
Ground track

The orbit data is extracted from the following two-line orbital elements,

1 26619U 00075A   18113.94276815  .00000504  00000-0  10364-3 0  9998
2 26619  97.8131 132.8993 0009735 194.6715 165.4276 14.64439966929011
Epoch (UTC): 23 April 2018 22:37:35
Eccentricity: 0.0009735
inclination: 97.8131°
perigee height: 672 km
apogee height: 686 km
right ascension of ascending node: 132.8993°
argument of perigee: 194.6715°
revolutions per day: 14.64439966
mean anomaly at epoch: 165.4276°
orbit number at epoch: 92901

The dashed part of the orbit path shows where the satellite is in the earth's shadow,  

DLR